#timestamp,LO_Frequency,Temp,Hum 
1437645615.6,286078801.0,31.2,45.1 
1437645635.7,286078796.9,31.2,45.1 
1437645655.9,286078802.9,31.2,45.1 
1437645676.0,286078799.4,31.2,45.1 
1437645695.2,286078799.2,31.2,45.1 
1437645715.3,286078800.5,31.2,45.1 
1437645735.5,286078798.6,31.2,45.1 
1437645755.6,286078802.0,31.2,45.1 
1437645775.7,286078801.0,31.2,45.1 
1437645795.8,286078796.8,31.2,45.6 
1437645816.0,286078804.2,31.2,45.1 
1437645836.1,286078797.0,31.2,45.6 
1437645855.3,286078798.9,31.2,45.6 
1437645875.4,286078803.0,31.2,45.6 
1437645895.6,286078798.9,31.2,45.6 
1437645915.7,286078801.3,31.2,45.6 
1437645935.8,286078797.1,31.2,45.6 
1437645955.9,286078800.5,31.2,45.6 
1437645976.1,286078800.1,31.2,45.6 
1437645995.3,286078802.4,31.2,45.6 
1437646015.4,286078799.7,31.2,45.6 
1437646035.5,286078798.9,31.2,45.6 
1437646055.7,286078799.3,31.2,45.6 
1437646075.8,286078802.5,31.2,45.6 
1437646095.9,286078801.5,31.2,45.6 
1437646116.0,286078799.4,31.2,45.6 
1437646135.3,286078799.3,31.2,45.1 
1437646155.4,286078801.0,31.2,45.6 
1437646175.5,286078799.7,31.2,45.6 
1437646195.7,286078799.5,31.2,45.6 
1437646215.8,286078799.6,31.2,45.6 
1437646235.9,286078798.7,31.2,45.6 
1437646256.0,286078801.1,31.2,45.6 
1437646275.3,286078798.4,31.2,45.6 
1437646295.4,286078802.7,31.2,45.6 
1437646315.5,286078798.7,31.2,45.6 
1437646335.6,286078798.8,31.2,45.6 
1437646355.8,286078800.3,31.2,45.6 
1437646375.9,286078801.1,31.2,45.6 
1437646396.0,286078799.1,31.2,45.6 
1437646415.2,286078799.1,31.2,45.6 
1437646435.4,286078798.4,31.2,45.6 
1437646455.5,286078802.8,31.2,45.1 
1437646475.6,286078798.4,31.2,45.1 
1437646495.7,286078801.2,31.2,45.6 
1437646515.9,286078800.1,31.2,45.6 
1437646536.0,286078801.3,31.2,45.6 
1437646555.2,286078801.5,31.2,45.6 
1437646575.3,286078799.1,31.2,45.6 
1437646595.5,286078799.3,31.2,45.6 
1437646615.6,286078800.8,31.2,45.6 
1437646635.7,286078797.2,31.2,45.6 
1437646655.8,286078799.0,31.2,45.6 
1437646676.0,286078800.3,31.2,45.6 
1437646696.1,286078800.7,31.2,45.6 
1437646715.3,286078801.4,31.2,45.6 
1437646735.4,286078797.9,31.2,46.1 
1437646755.6,286078803.0,31.2,45.6 
1437646775.7,286078797.0,31.2,45.6 
1437646795.8,286078802.9,31.2,45.6 
1437646815.9,286078798.1,31.2,45.6 
1437646836.1,286078799.1,31.2,45.6 
1437646855.3,286078798.6,31.2,45.6 
1437646875.4,286078802.6,31.2,45.6 
1437646895.5,286078801.5,31.2,45.6 
1437646915.7,286078796.9,31.2,45.6 
1437646935.8,286078803.1,31.2,45.6 
1437646955.9,286078797.1,31.2,45.6 
1437646976.0,286078800.8,31.2,45.6 
1437646995.3,286078800.0,31.2,45.6 
1437647015.4,286078800.2,31.2,45.6 
1437647035.5,286078800.4,31.2,45.6 
1437647055.6,286078803.0,31.2,45.6 
1437647075.8,286078799.9,31.2,45.6 
1437647095.9,286078797.2,31.2,45.6 
1437647116.0,286078800.0,31.2,45.6 
1437647135.2,286078798.4,31.2,45.6 
1437647155.4,286078802.6,31.2,45.6 
1437647175.5,286078797.4,31.2,45.6 
1437647195.6,286078802.9,31.2,45.6 
1437647215.7,286078798.9,31.2,45.6 
1437647235.9,286078803.0,31.2,45.1 
1437647256.0,286078799.5,31.2,45.1 
1437647276.1,286078797.2,31.2,45.1 
1437647295.3,286078802.3,31.2,45.1 
1437647315.5,286078796.8,31.2,45.1 
1437647335.6,286078804.1,31.2,45.1 
1437647355.7,286078799.8,31.2,45.1 
1437647375.8,286078796.9,31.2,45.1 
1437647396.0,286078803.0,31.2,44.6 
1437647416.1,286078796.9,31.2,44.6 
1437647435.3,286078798.5,31.2,44.6 
1437647455.4,286078804.5,31.2,44.6 
1437647475.5,286078799.4,31.2,44.1 
1437647495.7,286078799.2,31.2,44.1 
1437647515.8,286078797.3,31.2,44.1 
1437647535.9,286078801.3,31.2,44.1 
1437647556.0,286078801.0,31.2,44.1 
1437647575.3,286078798.6,31.2,44.1 
1437647595.4,286078800.2,31.2,44.1 
1437647615.5,286078800.3,31.2,43.6 
1437647635.6,286078799.9,31.2,43.6 
1437647655.8,286078798.5,31.2,43.6 
1437647675.9,286078802.6,31.2,43.6 
1437647696.0,286078801.2,31.2,43.6 
1437647715.2,286078797.7,31.2,43.6 
1437647735.4,286078800.6,31.2,43.6 
1437647755.5,286078798.4,31.2,43.6 
1437647775.6,286078802.9,31.2,43.6 
1437647795.7,286078799.8,31.2,43.6 
1437647815.9,286078797.5,31.2,43.6 
1437647836.0,286078798.8,31.2,43.6 
1437647855.2,286078803.5,31.2,43.6 
1437647875.3,286078801.3,31.2,43.6 
1437647895.5,286078799.0,31.2,43.1 
1437647915.6,286078798.7,31.2,43.1 
1437647935.7,286078799.0,31.2,43.1 
1437647955.8,286078802.8,31.2,43.6 
1437647976.0,286078798.2,31.2,43.6 
1437647996.1,286078799.0,31.2,43.6 
1437648015.3,286078800.8,31.2,43.6 
1437648035.4,286078801.4,31.2,43.6 
1437648055.6,286078799.7,31.2,43.6 
1437648075.7,286078799.8,31.2,43.6 
1437648095.8,286078799.8,31.2,43.6 
1437648115.9,286078798.8,31.2,43.6 
1437648136.1,286078800.2,31.2,43.6 
1437648155.3,286078800.6,31.2,43.6 
1437648175.4,286078798.8,31.2,43.6 
1437648195.6,286078802.9,31.2,43.1 
1437648215.7,286078801.2,31.2,43.6 
1437648235.8,286078800.4,31.2,43.6 
1437648256.0,286078800.6,31.2,43.6 
1437648276.1,286078801.2,31.2,43.6 
1437648295.3,286078796.8,31.2,43.6 
1437648315.4,286078801.5,31.2,43.6 
1437648335.5,286078798.8,31.2,43.6 
1437648355.7,286078796.8,31.2,43.6 
1437648375.8,286078802.0,31.2,43.1 
1437648395.9,286078801.4,31.2,43.6 
1437648416.0,286078796.9,31.2,43.6 
1437648435.3,286078801.1,31.2,43.6 
1437648455.4,286078798.2,31.2,43.6 
1437648475.5,286078798.8,31.2,43.6 
1437648495.7,286078802.7,31.2,43.6 
1437648515.8,286078797.3,31.2,43.6 
1437648535.9,286078802.0,31.2,43.6 
1437648556.0,286078798.8,31.2,43.6 
1437648575.3,286078801.5,31.2,43.6 
1437648595.4,286078799.3,31.2,43.1 
1437648615.5,286078797.0,31.2,43.1 
1437648635.6,286078802.8,31.2,42.6 
1437648655.8,286078801.0,31.2,43.1 
1437648675.9,286078799.6,31.2,43.1 
1437648696.0,286078801.2,31.2,43.1 
1437648715.2,286078798.5,31.2,43.1 
1437648735.3,286078799.4,31.2,42.6 
1437648755.5,286078800.9,31.2,42.6 
1437648775.6,286078798.6,31.2,42.6 
1437648795.7,286078800.6,31.2,42.6 
1437648815.9,286078801.2,31.2,42.6 
1437648836.0,286078799.1,31.2,42.1 
1437648856.1,286078801.3,31.2,42.1 
1437648875.3,286078798.1,31.2,42.6 
1437648895.4,286078798.6,31.2,42.1 
1437648915.6,286078798.5,31.2,42.6 
1437648935.7,286078800.5,31.2,42.6 
1437648955.8,286078801.4,31.2,42.6 
1437648975.9,286078801.0,31.2,42.6 
1437648996.1,286078801.5,31.2,42.6 
1437649015.3,286078798.4,31.2,41.6 
1437649035.4,286078803.9,31.2,41.1 
1437649055.5,286078799.1,31.2,40.6 
1437649075.7,286078800.2,31.2,40.6 
1437649095.8,286078800.4,31.2,41.1 
1437649115.9,286078799.3,31.2,41.1 
1437649136.0,286078798.9,31.2,41.6 
1437649155.3,286078802.3,31.2,41.6 
1437649175.4,286078798.5,31.2,41.6 
1437649195.5,286078802.7,31.2,42.1 
